EN

Hourly Weather Tlukawy

Today, 23 April, Friday

Time Temperature Precipitation Wind Pressure Humidity
00:00 +1°C° 0 mm 3 mps 756 mmHg 81%
01:00 0°C° 0 mm 3 mps 757 mmHg 84%
02:00 0°C° 0 mm 3 mps 757 mmHg 88%
03:00 0°C° 0 mm 3 mps 757 mmHg 91%
04:00 0°C° 0 mm 3 mps 757 mmHg 94%
05:00 0°C° 0 mm 4 mps 757 mmHg 88%
06:00 +1°C° 0 mm 4 mps 758 mmHg 83%
07:00 +2°C° 0 mm 5 mps 758 mmHg 77%
08:00 +3°C° 0.1 mm 5 mps 758 mmHg 69%
09:00 +6°C° 0.1 mm 5 mps 758 mmHg 61%
10:00 +7°C° 0.1 mm 6 mps 758 mmHg 53%
11:00 +8°C° 0.2 mm 6 mps 759 mmHg 53%
12:00 +8°C° 0.2 mm 5 mps 759 mmHg 54%
13:00 +8°C° 0.2 mm 5 mps 759 mmHg 55%
14:00 +8°C° 0.3 mm 5 mps 759 mmHg 55%
15:00 +8°C° 0.3 mm 5 mps 759 mmHg 55%
16:00 +8°C° 0.3 mm 5 mps 759 mmHg 55%
17:00 +7°C° 0.1 mm 4 mps 759 mmHg 58%
18:00 +7°C° 0.1 mm 3 mps 759 mmHg 61%
19:00 +5°C° 0.1 mm 3 mps 759 mmHg 63%
20:00 +5°C° 0 mm 2 mps 759 mmHg 67%
21:00 +4°C° 0 mm 2 mps 759 mmHg 70%
22:00 +3°C° 0 mm 2 mps 759 mmHg 73%
23:00 +2°C° 0 mm 2 mps 759 mmHg 76%

Tomorrow, 24 April, Saturday

Time Temperature Precipitation Wind Pressure Humidity
00:00 +1°C° 0 mm 3 mps 759 mmHg 79%
01:00 +1°C° 0 mm 3 mps 759 mmHg 82%
02:00 0°C° 0 mm 3 mps 759 mmHg 84%
03:00 0°C° 0 mm 3 mps 759 mmHg 86%
04:00 -1°C° 0 mm 2 mps 759 mmHg 88%
05:00 +1°C° 0 mm 3 mps 759 mmHg 82%
06:00 +2°C° 0 mm 3 mps 760 mmHg 75%
07:00 +3°C° 0 mm 3 mps 760 mmHg 69%
08:00 +5°C° 0 mm 3 mps 760 mmHg 62%
09:00 +7°C° 0 mm 3 mps 759 mmHg 56%
10:00 +9°C° 0 mm 3 mps 759 mmHg 49%
11:00 +8°C° 0.1 mm 4 mps 759 mmHg 49%
12:00 +10°C° 0.1 mm 4 mps 759 mmHg 49%
13:00 +9°C° 0.1 mm 5 mps 759 mmHg 49%
14:00 +9°C° 0 mm 5 mps 758 mmHg 47%
15:00 +9°C° 0 mm 5 mps 758 mmHg 46%
16:00 +9°C° 0 mm 6 mps 758 mmHg 45%
17:00 +8°C° 0 mm 5 mps 758 mmHg 46%
18:00 +6°C° 0 mm 5 mps 759 mmHg 48%
19:00 +5°C° 0 mm 4 mps 759 mmHg 50%
20:00 +4°C° 0 mm 3 mps 759 mmHg 54%
21:00 +2°C° 0 mm 3 mps 760 mmHg 59%
22:00 +2°C° 0 mm 2 mps 760 mmHg 64%
23:00 +1°C° 0 mm 2 mps 760 mmHg 66%

Day after tomorrow, 25 April, Sunday

Time Temperature Precipitation Wind Pressure Humidity
00:00 +1°C° 0 mm 2 mps 760 mmHg 69%
01:00 -1°C° 0 mm 2 mps 760 mmHg 72%
02:00 -1°C° 0 mm 2 mps 760 mmHg 72%
03:00 -2°C° 0 mm 2 mps 760 mmHg 73%
04:00 -2°C° 0 mm 2 mps 760 mmHg 73%
05:00 0°C° 0 mm 3 mps 760 mmHg 68%
06:00 +1°C° 0 mm 3 mps 760 mmHg 62%
07:00 +3°C° 0 mm 3 mps 760 mmHg 57%
08:00 +4°C° 0 mm 4 mps 760 mmHg 49%
09:00 +6°C° 0 mm 5 mps 760 mmHg 40%
10:00 +7°C° 0 mm 5 mps 760 mmHg 32%
11:00 +8°C° 0 mm 5 mps 760 mmHg 32%
12:00 +8°C° 0 mm 6 mps 760 mmHg 33%
13:00 +8°C° 0 mm 6 mps 759 mmHg 33%
14:00 +8°C° 0 mm 6 mps 759 mmHg 37%
15:00 +8°C° 0 mm 6 mps 759 mmHg 41%
16:00 +7°C° 0 mm 6 mps 759 mmHg 45%
17:00 +6°C° 0 mm 5 mps 759 mmHg 49%
18:00 +4°C° 0 mm 4 mps 759 mmHg 52%
19:00 +3°C° 0 mm 3 mps 759 mmHg 56%
20:00 +2°C° 0 mm 3 mps 759 mmHg 59%
21:00 +2°C° 0 mm 2 mps 759 mmHg 62%
22:00 +1°C° 0 mm 2 mps 759 mmHg 66%
23:00 +1°C° 0 mm 2 mps 759 mmHg 69%

26 April, Monday

Time Temperature Precipitation Wind Pressure Humidity
00:00 +1°C° 0 mm 2 mps 759 mmHg 72%
01:00 -1°C° 0 mm 2 mps 758 mmHg 75%
02:00 -1°C° 0 mm 2 mps 758 mmHg 76%
03:00 -1°C° 0 mm 2 mps 758 mmHg 78%
04:00 -2°C° 0 mm 2 mps 758 mmHg 80%
05:00 +1°C° 0 mm 2 mps 758 mmHg 73%
06:00 +1°C° 0 mm 3 mps 758 mmHg 66%
07:00 +3°C° 0 mm 3 mps 757 mmHg 59%
08:00 +4°C° 0 mm 3 mps 757 mmHg 51%
09:00 +7°C° 0 mm 3 mps 757 mmHg 44%
10:00 +8°C° 0 mm 3 mps 757 mmHg 36%
11:00 +9°C° 0 mm 3 mps 756 mmHg 35%
12:00 +10°C° 0 mm 3 mps 756 mmHg 33%
13:00 +10°C° 0 mm 3 mps 755 mmHg 32%
14:00 +10°C° 0 mm 3 mps 755 mmHg 32%
15:00 +10°C° 0 mm 3 mps 755 mmHg 33%
16:00 +11°C° 0 mm 3 mps 755 mmHg 33%
17:00 +9°C° 0 mm 3 mps 754 mmHg 39%
18:00 +7°C° 0 mm 3 mps 754 mmHg 46%
19:00 +5°C° 0 mm 3 mps 754 mmHg 52%
20:00 +4°C° 0 mm 2 mps 754 mmHg 54%
21:00 +3°C° 0 mm 2 mps 754 mmHg 55%
22:00 +2°C° 0 mm 2 mps 755 mmHg 56%
23:00 +2°C° 0 mm 2 mps 754 mmHg 58%

27 April, Tuesday

Time Temperature Precipitation Wind Pressure Humidity
00:00 +1°C° 0 mm 2 mps 754 mmHg 59%
01:00 +1°C° 0 mm 2 mps 754 mmHg 60%
02:00 +1°C° 0 mm 2 mps 754 mmHg 62%
03:00 -1°C° 0 mm 2 mps 753 mmHg 64%
04:00 -1°C° 0 mm 2 mps 753 mmHg 65%
05:00 +1°C° 0 mm 2 mps 753 mmHg 62%
06:00 +3°C° 0 mm 2 mps 753 mmHg 59%
07:00 +3°C° 0 mm 3 mps 753 mmHg 56%
08:00 +5°C° 0 mm 3 mps 752 mmHg 52%
09:00 +8°C° 0 mm 3 mps 752 mmHg 48%
10:00 +9°C° 0 mm 3 mps 752 mmHg 44%
11:00 +10°C° 0 mm 3 mps 751 mmHg 42%
12:00 +10°C° 0 mm 3 mps 751 mmHg 41%
13:00 +11°C° 0 mm 4 mps 750 mmHg 39%
14:00 +11°C° 0 mm 4 mps 750 mmHg 42%
15:00 +10°C° 0 mm 3 mps 749 mmHg 45%
16:00 +10°C° 0 mm 3 mps 749 mmHg 48%
17:00 +9°C° 0 mm 3 mps 749 mmHg 53%
18:00 +8°C° 0 mm 3 mps 748 mmHg 58%
19:00 +7°C° 0 mm 3 mps 748 mmHg 63%
20:00 +7°C° 0 mm 3 mps 748 mmHg 63%
21:00 +5°C° 0 mm 3 mps 748 mmHg 63%
22:00 +5°C° 0 mm 4 mps 747 mmHg 63%
23:00 +5°C° 0 mm 3 mps 747 mmHg 63%

28 April, Wednesday

Time Temperature Precipitation Wind Pressure Humidity
00:00 +5°C° 0 mm 3 mps 747 mmHg 63%
01:00 +5°C° 0 mm 3 mps 746 mmHg 64%
02:00 +4°C° 0 mm 3 mps 746 mmHg 65%
03:00 +4°C° 0 mm 3 mps 746 mmHg 66%
04:00 +4°C° 0 mm 3 mps 746 mmHg 68%
05:00 +4°C° 0 mm 3 mps 746 mmHg 67%
06:00 +5°C° 0 mm 3 mps 746 mmHg 67%
07:00 +7°C° 0 mm 3 mps 746 mmHg 67%
08:00 +8°C° 0 mm 3 mps 746 mmHg 65%
09:00 +9°C° 0 mm 3 mps 745 mmHg 63%
10:00 +10°C° 0 mm 3 mps 745 mmHg 61%
11:00 +10°C° 0 mm 3 mps 745 mmHg 61%
12:00 +11°C° 0 mm 3 mps 745 mmHg 60%
13:00 +11°C° 0 mm 3 mps 745 mmHg 59%
14:00 +11°C° 0 mm 3 mps 745 mmHg 61%
15:00 +11°C° 0 mm 3 mps 745 mmHg 63%
16:00 +11°C° 0 mm 3 mps 745 mmHg 65%
17:00 +10°C° 0.1 mm 3 mps 745 mmHg 71%
18:00 +9°C° 0.1 mm 3 mps 745 mmHg 77%
19:00 +8°C° 0.1 mm 2 mps 745 mmHg 82%
20:00 +7°C° 0 mm 2 mps 745 mmHg 85%
21:00 +6°C° 0 mm 2 mps 745 mmHg 89%
22:00 +6°C° 0 mm 2 mps 746 mmHg 92%
23:00 +5°C° 0 mm 2 mps 746 mmHg 92%
Show more

We Need Your Consent

Meteoprog and our Service Providers may store and access personal data such as cookies, device identifiers or other similar technologies on your device and process such data to personalise content and ads, as well as provide social media features and to analyse the traffic.

  • Store and/or access information on your device

    Cookies, device identifiers or other information can be stored or accessed on your device for the purposes indicated above.

  • Personalised ads and content, ad and content measurement, audience insights, and products development

    Ads and content can be personalised based on a profile. More data can be added to better personalise ads and content. Ad and content performance can be measured. Insights about the audience who saw the ads and content can be derived. Such data can be used to develop or improve user’s experience, systems and software.

By clicking ‘I Agree’ you will allow the use of indicated cookies, device identifiers, web beacons or other similar technologies. Your settings can be changed in the browser on your device.

For certain purposes, legitimate interests may be relied on, rather than consent. You can read more about this in our Privacy and Cookie Policy.